Content
SEND FEEDBACK

Daily
Averages
Monthly
Summary
United States of America

NILES, MICHIGAN


Home > North America > United States > Michigan
Elevation: 720 feet     Latitude: 41 50N     Longitude: 086 15W

WEATHER
 
SELECT A DAY
Number of Records: 218,718;   Date Range: 1/1/95 - 12/18/14
 
SHARE

PRINT THIS DATA

[ ← Previous Day ]
WEATHER ALMANAC - JANUARY 3, 2013
[ Next Day → ]
[ °C ]   °F
Weather ElementAverageHighLow
Temperature24.3 °F30.9 °F (1:54 pm)15.1 °F (1:54 am)
Dewpoint16.8 °F23 °F (12:18 pm)3.9 °F (1:54 am)
Humidity73.3 %81 % (11:54 am)61 % (1:54 am)
Barometer30.18 in30.26 in (7:54 pm)30.10 in (6:34 am)
Wind Speed11.1 mph15 mph (2:54 pm)
Weather ElementAverage
Visibility8.5 mi
Wind DirectionWSW (232.7 °)

Weather ElementTotal
Precipitation---
Heating Degree Days42 (Base 65)
Averaged from 30 records on January 3, 2013
WEATHER CONDITIONS BREAKOUT
WIND DIRECTION BREAKOUT
WEATHER BY HOUR - JANUARY 3, 2013
[ °C ]   °F
Local TimeTemperatureDewpointHumidityBarometerVisibilityWind DirectionWind SpeedGust SpeedPrecipitationEventsConditions
1:54 AM15.1 °F3.9 °F61 %30.16 in10.0 miSSW (210°)10.4 mphClear
2:54 AM16.0 °F6.1 °F65 %30.17 in10.0 miSSW (210°)10.4 mphOvercast
3:54 AM18.0 °F8.1 °F65 %30.16 in10.0 miSW (220°)11.5 mphOvercast
4:54 AM19.0 °F10.0 °F68 %30.14 in8.0 miSW (220°)10.4 mph0.00 inSnowLight Snow
5:54 AM19.0 °F10.9 °F71 %30.14 in10.0 miSW (220°)11.5 mph0.00 inOvercast
6:34 AM19.4 °F12.2 °F74 %30.10 in10.0 miSW (220°)9.2 mphOvercast
6:54 AM19.9 °F12.9 °F74 %30.14 in10.0 miSW (220°)11.5 mphOvercast
7:01 AM19.4 °F12.2 °F74 %30.11 in10.0 miSW (220°)10.4 mphOvercast
7:54 AM19.9 °F14.0 °F78 %30.15 in10.0 miSSW (210°)12.7 mphOvercast
8:49 AM21.2 °F15.8 °F80 %30.12 in7.0 miWSW (240°)11.5 mphOvercast
8:54 AM21.0 °F15.1 °F78 %30.16 in7.0 miSW (230°)11.5 mphOvercast
9:54 AM23.0 °F17.1 °F78 %30.17 in6.0 miSW (230°)10.4 mphHaze
10:54 AM25.0 °F19.0 °F78 %30.19 in6.0 miSW (230°)10.4 mphHaze
11:10 AM24.8 °F19.4 °F80 %30.14 in5.0 miSW (220°)10.4 mphHaze
11:35 AM26.6 °F21.2 °F80 %30.14 in5.0 miSW (220°)10.4 mphHaze
11:44 AM26.6 °F21.2 °F80 %30.14 in5.0 miSW (220°)10.4 mphHaze
11:54 AM27.0 °F21.9 °F81 %30.18 in5.0 miSW (220°)10.4 mphHaze
12:18 PM28.4 °F23.0 °F80 %30.13 in5.0 miSW (220°)12.7 mphHaze
12:54 PM28.9 °F23.0 °F78 %30.16 in6.0 miWSW (240°)11.5 mphHaze
1:54 PM30.9 °F21.0 °F67 %30.16 in10.0 miWest (280°)13.8 mphOvercast
2:54 PM30.0 °F21.9 °F72 %30.18 in10.0 miWest (270°)15.0 mphOvercast
3:54 PM30.0 °F21.9 °F72 %30.20 in10.0 miWest (260°)13.8 mphOvercast
4:54 PM28.9 °F21.0 °F72 %30.22 in10.0 miWest (260°)12.7 mphOvercast
5:54 PM28.0 °F19.9 °F72 %30.23 in10.0 miWest (260°)11.5 mphOvercast
6:54 PM28.0 °F19.0 °F69 %30.25 in10.0 miWSW (250°)9.2 mphOvercast
7:54 PM28.0 °F19.0 °F69 %30.26 in10.0 miWSW (240°)10.4 mphOvercast
8:54 PM28.0 °F19.0 °F69 %30.26 in10.0 miWSW (240°)9.2 mphOvercast
9:54 PM27.0 °F19.0 °F72 %30.26 in10.0 miWSW (240°)9.2 mphOvercast
10:54 PM26.1 °F18.0 °F71 %30.26 in10.0 miSW (230°)9.2 mphOvercast
11:54 PM25.0 °F17.1 °F72 %30.26 in10.0 miSW (230°)10.4 mphOvercast
Hourly data recorded from KSBN, located miles away from Niles, Michigan







STORIES FROM OUR PARTNERS